Regional Weather Roundup
Issued by NWS

Home | Current Version | Previous Version | Text Only | Print | Product List | Glossary Off
Versions: 1 2 3 4 5 6 7 8 9 10 11 12 13 14 15 16 17 18 19 20 21 22 23 24 25 26 27 28 29 30 31 32 33 34 35 36 37 38 39 40 41 42 43 44 45 46 47 48 49 50

000
ASUS43 KIND 260459
RWRIN

WEATHER ROUNDUP FOR INDIANA
NATIONAL WEATHER SERVICE INDIANAPOLIS IN
1200 AM EST SUN FEB 26 2017

NOTE: "FAIR" INDICATES FEW OR NO CLOUDS BELOW 12,000 FEET WITH NO
SIGNIFICANT WEATHER AND/OR OBSTRUCTIONS TO VISIBILITY.

* - STATION DOES NOT REPORT WEATHER SUCH AS PRECIPITATION OR FOG.

+ - STATION NOT QUALITY CONTROLLED BY THE NATIONAL WEATHER SERVICE.
    USE DATA WITH CAUTION...ESPECIALLY DEWPOINT AND RELATIVE
    HUMIDITY OBSERVATIONS.

INZ001>003-010>013-019-020-260600-
NORTHWEST INDIANA

CITY           SKY/WX    TMP DP  RH WIND       PRES   REMARKS
KNOX *+        CLOUDY    27  -2  28 W10       30.04S WCI  17

$$

LMZ046-743>745-260600-
SOUTHERN LAKE MICHIGAN

STATION/POSITION TIME  TEMP    WIND        PRES    WAVE
                       AIR SEA DIR/SP/G            HT
                 (UTC) (F)     (DEG/KT/KT) (MB)    (FT)
BURNS HARBOR     0440   28     290/ 14/ 19 1017.6R
MICHIGAN CITY    0430   27     270/ 15/ 19   N/A

$$

INZ004-005-014>016-021>024-260600-
NORTH CENTRAL INDIANA

CITY           SKY/WX    TMP DP  RH WIND       PRES   REMARKS
GOSHEN         CLOUDY    26  16  65 W9        30.01R WCI  17
SOUTH BEND     CLOUDY    25  15  66 NW10      30.02R WCI  15

$$

INZ006>009-017-018-025>027-260600-
NORTHEAST INDIANA

CITY           SKY/WX    TMP DP  RH WIND       PRES   REMARKS
ANGOLA *+      CLOUDY    25  19  80 W5        29.98S WCI  19
FORT WAYNE     FLURRIES  27  18  69 W12G20    30.02R WCI  17
KENDALLVILLE + CLOUDY    25  18  73 W9        29.99S WCI  15

$$

INZ028-029-035-036-043>045-051>053-260600-
WEST CENTRAL INDIANA

CITY           SKY/WX    TMP DP  RH WIND       PRES   REMARKS
LAFAYETTE      CLEAR     23  18  81 W6        30.08R WCI  16
TERRE HAUTE    CLEAR     27  14  58 W5        30.12R WCI  22

$$

INZ030>032-037>040-046>048-054>057-064-065-260600-
CENTRAL INDIANA

CITY           SKY/WX    TMP DP  RH WIND       PRES   REMARKS
GREENWOOD *+   CLEAR     28  17  63 W7        30.08R WCI  21
INDIANAPOLIS   PTCLDY    25  16  68 W9        30.07R WCI  15
-EAGLE CREEK   CLEAR     27  16  63 W7        30.06R WCI  19
KOKOMO +       CLOUDY    25  18  74 W12       30.05R WCI  14
MT COMFORT *+  PTCLDY    23  18  80 W7        30.06S WCI  15
SHELBYVILLE    CLEAR     28  16  60 W9        30.07R WCI  19

$$

INZ033-034-041-042-049-050-058-059-260600-
EAST CENTRAL INDIANA

CITY           SKY/WX    TMP DP  RH WIND       PRES   REMARKS
MUNCIE         CLOUDY    27  17  66 W10       30.03R WCI  17

$$

INZ060-061-067>069-081>083-085>088-260600-
SOUTHWEST INDIANA

CITY           SKY/WX    TMP DP  RH WIND       PRES   REMARKS
EVANSVILLE     CLEAR     32  16  51 W3        30.15S
HUNTINGBURG *+ CLEAR     27  19  72 W3        30.14R

$$

INZ062-063-066-070>080-084-089>092-260600-
SOUTH CENTRAL AND SOUTHEAST INDIANA

CITY           SKY/WX    TMP DP  RH WIND       PRES   REMARKS
BLOOMINGTON    CLEAR     28  15  58 NW6       30.09R WCI  22
MADISON *+     CLEAR     28  19  69 SW5       30.10S WCI  23
SEYMOUR +      PTCLDY    27  18  69 W7        30.10R WCI  19

$$




USA.gov is the U.S. government's official web portal to all federal, state and local government web resources and services.